Simultaneous Nadir Overpasses (SNOs) Predictions

Prediction of SNOs between LANDSAT-8 and NOAA-19 Satellite Orbit:

Table of predicted SNOs for the next 14.0 days since TLE Epoch: 10/16/2021
Index Date (LANDSAT-8) Time (LANDSAT-8) Lat,Lon (LANDSAT-8) SZA (LANDSAT-8 ) Date (NOAA-19) Time (NOAA-19) Lat,Lon (NOAA-19) SZA (NOAA-19 ) Distance(km) Time Diff (sec)
1 10/17/2021 21:38:53 80.56,-111.87 91.92 10/17/2021 21:38:54 80.56,-111.84 91.93 0.52 1
2 10/20/2021 03:12:37 -80.58, -15.10 87.24 10/20/2021 03:11:55 -80.56, -14.99 87.26 2.83 42
3 10/20/2021 04:02:04 80.55, 152.28 92.73 10/20/2021 04:03:00 80.56, 152.14 92.75 2.88 56
4 10/22/2021 08:46:24 80.48, 80.46 93.39 10/22/2021 08:45:10 80.63, 80.10 93.45 17.54 74
5 10/22/2021 09:35:48 -80.57,-110.96 86.44 10/22/2021 09:36:01 -80.56,-110.90 86.44 1.81 13
6 10/24/2021 15:09:32 80.56, -14.48 94.33 10/24/2021 15:09:12 80.58, -14.57 94.33 2.32 20
7 10/24/2021 15:58:59 -80.56, 153.16 85.66 10/24/2021 16:00:07 -80.56, 153.18 85.63 0.71 68
8 10/26/2021 20:43:16 -80.58, 82.27 84.88 10/26/2021 20:42:14 -80.57, 82.32 84.90 1.07 62
9 10/26/2021 21:32:43 80.55,-110.41 95.09 10/26/2021 21:33:17 80.57,-110.33 95.13 2.71 34



Historial Predications of SNOs between LANDSAT-8 and NOAA-19
